Weather observations for the past three days for
Houghton County Memorial Airport
Imperial (Metric)
Date Time (edt) Wind (mph) Vis. (mi.) Weather Sky Cond. Temperature (ºF) Relative Humidity Wind Chill (°F) Heat Index (°F) Pressure Precipitation (in)
Air Dwpt 6 hour altimeter (in) sea level (mb) 1 hr 3 hr 6 hr
Max. Min.
12 13:53 W 12 10.00 Fair CLR 82.9 64 82.9 63 53% 84 30.07 1017.9
12 12:53 W 12 10.00 Fair CLR 82.9 64 53% 84 30.07 1017.7
12 11:53 NW 7 10.00 Fair CLR 81 64 57% 83 30.06 1017.4
12 10:53 W 7 10.00 Fair CLR 78.1 63 60% 80 30.06 1017.5
12 09:53 Calm 10.00 Fair CLR 72 63 73% 30.05 1017.5
12 08:53 Calm 10.00 Fair CLR 66.9 60.1 79% 30.06 1017.7
12 07:53 Calm 10.00 Fair CLR 63 59 63 53.1 87% 30.06 1017.7
12 06:53 Calm 10.00 Partly Cloudy SCT060 SCT070 57.9 55 90% 30.06 1017.7
12 05:53 Calm 10.00 Fair CLR 55 53.1 93% 30.05 1017.4
12 04:53 Calm 10.00 Fair CLR 55 52 90% 30.04 1017.2
12 03:53 Calm 10.00 Fair CLR 54 51.1 90% 30.05 1017.4
12 02:53 Calm 10.00 Fair CLR 54 51.1 90% 30.06 1017.7
12 01:53 Calm 10.00 Fair CLR 54 51.1 70 53.1 90% 30.06 1017.8
12 00:53 Calm 10.00 Fair CLR 55 52 90% 30.06 1017.9
11 23:53 NE 3 10.00 Fair CLR 57 54 90% 30.07 1018.0
11 22:53 E 3 10.00 Fair CLR 59 55.9 90% 30.06 1017.8
11 21:53 E 3 10.00 Fair CLR 62.1 55.9 80% 30.07 1018.0
11 20:53 E 5 10.00 Fair CLR 66 59 78% 30.07 1018.2
11 19:53 E 5 10.00 Fair CLR 70 57.9 77 70 66% 30.08 1018.3
11 18:53 E 7 10.00 Fair CLR 73 57.9 59% 30.08 1018.4
11 17:53 SE 9 10.00 Fair CLR 75 60.1 60% 77 30.08 1018.6
11 16:53 SE 7 10.00 Fair CLR 75.9 59 56% 78 30.09 1018.7
11 15:53 E 7 10.00 Fair CLR 75 60.1 60% 77 30.09 1018.9
11 14:53 SE 7 10.00 Mostly Cloudy BKN035 75 59 58% 77 30.1 1019.0
11 13:53 Calm 10.00 Mostly Cloudy BKN034 75 57.9 75.9 60.1 55% 78 30.1 1019.2
11 12:53 SW 5 10.00 Partly Cloudy SCT029 75 57.9 55% 78 30.11 1019.6
11 11:53 SW 5 10.00 Mostly Cloudy BKN024 72 59 64% 30.12 1019.9
11 10:53 Calm 10.00 Mostly Cloudy BKN017 70 59 68% 30.13 1020.0
11 09:53 SE 5 10.00 A Few Clouds FEW017 69.1 59 70% 30.12 1019.7
11 08:53 Calm 10.00 Fair CLR 64.9 59 81% 30.11 1019.4
11 07:53 NW 3 10.00 Fair CLR 60.1 55.9 60.1 54 86% 30.1 1019.3
11 06:53 NW 5 10.00 Fair CLR 55.9 53.1 90% 30.09 1018.8
11 05:53 NW 3 10.00 Fair CLR 55 53.1 93% 30.09 1018.7
11 04:53 W 6 10.00 Fair CLR 55 53.1 93% 30.08 1018.5
11 03:53 N 3 10.00 Fair CLR 57 53.1 87% 30.07 1018.1
11 02:53 NE 6 10.00 Fair CLR 57 54 90% 30.07 1018.0
11 01:53 Calm 10.00 Fair CLR 55 51.1 70 54 87% 30.07 1018.0
11 00:53 NW 3 10.00 Fair CLR 55 52 90% 30.07 1018.2
10 23:53 N 3 10.00 Fair CLR 57 53.1 87% 30.07 1018.0
10 22:53 NE 3 10.00 Fair CLR 59 55 87% 30.05 1017.5
10 21:53 NE 3 10.00 Fair CLR 63 55.9 78% 30.04 1016.9
10 20:53 N 6 10.00 Fair CLR 68 55.9 65% 30.03 1016.6
10 19:53 N 6 10.00 Fair CLR 70 57 75 70 64% 30.03 1016.7
10 18:53 NE 8 10.00 Fair CLR 71.1 57 61% 30.02 1016.4
10 17:53 N 9 10.00 Fair CLR 73 57.9 59% 30.02 1016.5
10 16:53 NE 6 10.00 Fair CLR 73.9 60.1 62% 30.02 1016.3
10 15:53 NE 9 10.00 A Few Clouds FEW025 75 61 62% 77 30.01 1016.1
10 14:53 S 5 10.00 Mostly Cloudy BKN025 BKN030 BKN040 73.9 62.1 67% 30.01 1015.9
10 13:53 SE 8 10.00 A Few Clouds FEW043 75.9 62.1 75.9 64 62% 78 29.99 1015.5
10 12:53 SE 7 10.00 A Few Clouds FEW027 75 62.1 64% 77 29.98 1015.0
10 11:53 E 9 10.00 A Few Clouds FEW065 73.9 61 64% 29.98 1014.8
10 10:53 Vrbl 3 10.00 A Few Clouds FEW070 72 61 68% 29.97 1014.9
10 09:53 NE 5 10.00 A Few Clouds FEW075 70 60.1 71% 29.97 1014.6
10 08:53 N 6 10.00 Partly Cloudy SCT075 69.1 59 70% 29.95 1013.9
10 07:53 N 8 10.00 Fair CLR 64 57.9 64 54 81% 29.93 1013.2
10 06:53 W 5 10.00 Fair CLR 57.9 54 87% 29.92 1012.9
10 05:53 NW 5 10.00 Fair CLR 55 53.1 93% 29.91 1012.5
10 04:53 W 3 10.00 Fair CLR 55 53.1 93% 29.92 1012.9
10 03:53 Calm 10.00 Fair CLR 55 53.1 93% 29.92 1013.0
10 02:53 Calm 10.00 Fair CLR 55.9 53.1 90% 29.92 1012.8
10 01:53 Calm 10.00 Fair CLR 55.9 53.1 73.9 55.9 90% 29.93 1013.4
10 00:53 Calm 10.00 Fair CLR 57.9 55 90% 29.94 1013.5
09 23:53 Calm 10.00 Fair CLR 59 55.9 90% 29.93 1013.3
09 22:53 NE 3 10.00 Fair CLR 60.1 57.9 93% 29.92 1012.9
09 21:53 NE 3 10.00 Fair CLR 64.9 59 81% 29.92 1013.0
09 20:53 N 3 10.00 Fair CLR 73 57.9 59% 29.92 1012.9
09 19:53 NW 9 10.00 Fair CLR 73.9 57.9 78.1 73.9 57% 29.92 1012.9
09 18:53 NW 7 10.00 Fair CLR 77 57.9 52% 79 29.91 1012.5
09 17:53 NW 8 10.00 Fair CLR 78.1 57.9 50% 79 29.92 1012.7
09 16:53 NW 10 10.00 Fair CLR 77 57 50% 79 29.93 1013.1
09 15:53 NW 9 10.00 Fair CLR 77 57.9 52% 79 29.92 1012.9
09 14:53 NW 8 10.00 Fair CLR 78.1 57.9 50% 79 29.93 1013.2
Date Time (edt) Wind (mph) Vis. (mi.) Weather Sky Cond. Air Dwpt Max. Min. Relative Humidity Wind Chill (°F) Heat Index (°F) altimeter (in) sea level (mb) 1 hr 3 hr 6 hr
6 hour
Temperature (ºF) Pressure Precipitation (in)